Regional Weather Roundup
Issued by NWS

Home | Current Version | Previous Version | Text Only | Print | Product List | Glossary Off
Versions: 1 2 3 4 5 6 7 8 9 10 11 12 13 14 15 16 17 18 19 20 21 22 23 24 25 26 27 28 29 30 31 32 33 34 35 36 37 38 39 40 41 42 43 44 45 46 47 48 49 50

000
ASUS43 KOAX 070910
RWRNE

WEATHER ROUNDUP FOR NEBRASKA
NATIONAL WEATHER SERVICE OMAHA NE
300 AM CST WED DEC 07 2016

NOTES: SATELLITE DATA IS BEING USED TO AUGMENT CLOUD COVER ABOVE
       12000 FEET.
       "FAIR" INDICATES FEW OR NO CLOUDS BELOW 12,000 FEET WITH NO
       SIGNIFICANT WEATHER AND/OR OBSTRUCTIONS TO VISIBILITY.

  * THESE STATIONS DO NOT REPORT WEATHER SUCH AS RAIN...SNOW OR FOG.

NEZ001>004-019>022-054>056-071000-
NEBRASKA PANHANDLE

CITY           SKY/WX    TMP DP  RH WIND       PRES   REMARKS
SCOTTSBLUFF    CLOUDY    12   1  61 NE7       30.08R WCI   1
ALLIANCE       CLOUDY     9   1  70 N10       30.09R WCI  -5
CHADRON        CLOUDY    10   0  63 NW12      30.17R WCI  -5
KIMBALL        LGT SNOW  13  11  91 NE10      29.98F WCI   0
SIDNEY         CLOUDY    14   8  77 NE13      30.03R WCI   0
$$

NEZ057>060-069>072-079>082-071000-
SOUTHWEST NEBRASKA

CITY           SKY/WX    TMP DP  RH WIND       PRES   REMARKS
NORTH PLATTE   CLOUDY    14   2  58 N12       30.15S WCI   0
IMPERIAL       CLOUDY    18   9  68 NE15      30.09R WCI   4
LEXINGTON      CLOUDY    16   4  58 N12       30.17R WCI   3
MCCOOK         LGT SNOW  20  12  71 NE16      30.11R WCI   6
OGALLALA       CLOUDY    17   6  63 NE13      30.11R WCI   3
$$

NEZ005>010-023>029-035>040-094-071000-
NORTH CENTRAL NEBRASKA

CITY           SKY/WX    TMP DP  RH WIND       PRES   REMARKS
VALENTINE      CLOUDY     8  -2  63 NW15G23   30.17S WCI  -9
AINSWORTH      CLOUDY     8   2  75 NW13      30.16R WCI  -8
BROKEN BOW     CLOUDY    13   2  61 NW14      30.16R WCI  -2
O`NEILL        CLEAR     10   3  74 W12       30.19R WCI  -5
ORD            CLOUDY    13   2  61 NW13      30.19R WCI  -2
THEDFORD       CLOUDY    10   2  71 NW10      30.15R WCI  -4
$$

NEZ041-046>049-061>064-073>077-083>087-071000-
SOUTH CENTRAL NEBRASKA

CITY           SKY/WX    TMP DP  RH WIND       PRES   REMARKS
GRAND ISLAND   PTCLDY    17   6  62 NW10      30.20R WCI   5
AURORA         CLOUDY    17   7  64 NW8       30.19R WCI   7
HASTINGS       CLOUDY    19   9  65 N12       30.18R WCI   7
HEBRON         CLOUDY    24  11  58 N7        30.17S WCI  16
HOLDREGE       CLOUDY    19   6  56 N14       30.16R WCI   6
KEARNEY *      CLOUDY    16   1  53 N17       30.18R WCI   0
YORK           CLOUDY    18   9  68 NW10      30.19R WCI   6
$$

NEZ011>018-030>034-042>045-071000-
NORTHEAST NEBRASKA

CITY           SKY/WX    TMP DP  RH WIND       PRES   REMARKS
NORFOLK        CLOUDY    13   3  64 NW17G23   30.18R WCI  -4
ALBION         PTCLDY    13   4  66 NW15      30.19R WCI  -3
BLAIR          MOCLDY    18  10  68 NW6       30.16S WCI  10
FREMONT        MOCLDY    17   9  69 NW14G20   30.19R WCI   3
TEKAMAH        CLOUDY    18   8  65 NW18      30.19F WCI   2
WAYNE          CLOUDY    13   6  73 W9        30.18R WCI   1
$$

NEZ050>053-065>068-078-088>093-071000-
SOUTHEAST NEBRASKA

CITY           SKY/WX    TMP DP  RH WIND       PRES   REMARKS
LINCOLN        CLOUDY    22  10  60 N8        30.20S WCI  12
OMAHA EPPLEY   MOCLDY    19   8  62 NW10      30.19S WCI   7
BEATRICE       CLOUDY    24  14  64 N8        30.18S WCI  15
FALLS CITY     CLOUDY    25  13  60 N3        30.20R
NEBRASKA CITY  CLOUDY    23   8  53 N8        30.17F WCI  14
PLATTSMOUTH    CLOUDY    22   6  51 NW13      30.17F WCI  10
$$

NEZ044-045-051>053-067-071000-
OMAHA AREA

CITY           SKY/WX    TMP DP  RH WIND       PRES   REMARKS
OMAHA EPPLEY   MOCLDY    19   8  62 NW10      30.19S WCI   7
BLAIR          MOCLDY    18  10  68 NW6       30.16S WCI  10
FREMONT        MOCLDY    17   9  69 NW14G20   30.19R WCI   3
MILLARD        MOCLDY    21   9  58 NW7       30.19S WCI  12
OFFUTT AFB     MOCLDY    21  10  63 N9        30.18F WCI  11
PLATTSMOUTH    CLOUDY    22   6  51 NW13      30.17F WCI  10
WAHOO          FAIR      19   9  65 NW8       30.19S WCI   9
$$



USA.gov is the U.S. government's official web portal to all federal, state and local government web resources and services.